Wheeling, WV

6:56 PM EST on December 14, 2019 (GMT -0500)
Wheeling-Ohio County

Weather History for KHLG - October, 2019

Change the Weather History Date:

Tuesday, October 22, 2019

  Actual Average Record
Temperature  
Mean Temperature 58 °F 51 °F  
Max Temperature 67 °F 60 °F 82 °F (1947)
Min Temperature 49 °F 42 °F 16 °F (1930)
Degree Days  
Heating Degree Days 7 14  
Month to date heating degree days 172 235  
Since 1 July heating degree days 173 336  
Cooling Degree Days 0 0  
Month to date cooling degree days 40 10  
Year to date cooling degree days 986 688  
Growing Degree Days 10 (Base 50)    
Moisture  
Dew Point 52 °F    
Average Humidity 77    
Maximum Humidity 96    
Minimum Humidity 57    
Precipitation  
Precipitation 0.50 in 0.08 in 0.93 in (1929)
Month to date precipitation 2.95 1.84  
Year to date precipitation 30.93 31.61  
Sea Level Pressure  
Sea Level Pressure 29.81 in    
Wind  
Wind Speed 8 mph (SW)    
Max Wind Speed 17 mph    
Max Gust Speed 24 mph    
Visibility 8 miles    
Events Rain    
T = Trace of Precipitation, MM = Missing Value Source: NWS Daily Summary

Daily Weather History Graph

Daily Weather History Graph

Search for Another Location

Airport or City:

Astronomy

Oct. 22, 2019 Rise Set
Actual Time 7:40 AM EDT 6:33 PM EDT
Civil Twilight 7:12 AM EDT 7:00 PM EDT
Nautical Twilight 6:41 AM EDT 7:32 PM EDT
Astronomical Twilight 6:09 AM EDT 8:03 PM EDT
Moon 12:48 AM EDT (10/22) 3:41 PM EDT (10/22)
Length of Visible Light 11h 47m
Length of Day
10h 52m
Last Quarter, 37% of the Moon is Illuminated
Oct 22
Last Quarter
Oct 27
New
Nov 4
First Quarter
Nov 12
Full
Nov 19
Last Quarter

Hourly Weather History & Observations

Time (EDT) Temp. Dew Point Humidity Pressure Visibility Wind Dir Wind Speed Gust Speed Precip Events Conditions
12:53 AM 66.9 °F 54.0 °F 63% 29.81 in 10.0 mi South 8.1 mph - N/A   Overcast
1:53 AM 66.0 °F 54.0 °F 65% 29.80 in 10.0 mi SSE 8.1 mph - N/A   Overcast
2:53 AM 66.0 °F 55.0 °F 68% 29.79 in 10.0 mi South 8.1 mph - N/A   Overcast
3:49 AM 60.8 °F 57.2 °F 88% 29.82 in 5.0 mi SW 10.4 mph - 0.05 in Rain Rain
3:53 AM 61.0 °F 57.9 °F 90% 29.80 in 4.0 mi SW 8.1 mph - 0.06 in Rain Light Rain
4:53 AM 60.1 °F 57.9 °F 93% 29.79 in 5.0 mi SW 6.9 mph - 0.05 in Rain Light Rain
5:53 AM 59.0 °F 57.9 °F 96% 29.78 in 5.0 mi SSW 5.8 mph - 0.02 in Rain Light Rain
6:53 AM 59.0 °F 57.0 °F 93% 29.79 in 4.0 mi West 8.1 mph - 0.04 in Rain Light Rain
7:36 AM 57.0 °F 55.0 °F 93% 29.79 in 10.0 mi West 12.7 mph - 0.06 in Rain Light Rain
7:53 AM 57.0 °F 54.0 °F 89% 29.80 in 3.0 mi WSW 10.4 mph - 0.09 in Rain Light Rain
8:16 AM 55.9 °F 54.0 °F 93% 29.80 in 2.5 mi West 8.1 mph - 0.02 in Rain Light Rain
8:23 AM 55.9 °F 53.1 °F 90% 29.80 in 5.0 mi WNW 6.9 mph - 0.02 in Rain Light Rain
8:32 AM 55.0 °F 54.0 °F 96% 29.82 in 2.0 mi West 8.1 mph - 0.04 in Rain Light Rain
8:39 AM 55.0 °F 54.0 °F 96% 29.83 in 1.0 mi SW 5.8 mph - 0.09 in Rain Heavy Rain
8:53 AM 55.9 °F 54.0 °F 93% 29.83 in 1.2 mi WSW 4.6 mph - 0.16 in Rain Rain
9:01 AM 55.9 °F 54.0 °F 93% 29.83 in 3.0 mi SW 6.9 mph - 0.01 in Rain Light Rain
9:53 AM 55.0 °F 52.0 °F 89% 29.82 in 8.0 mi SW 6.9 mph - 0.07 in Rain Light Rain
10:53 AM 55.9 °F 53.1 °F 90% 29.78 in 10.0 mi South 10.4 mph - 0.01 in   Overcast
11:16 AM 55.9 °F 53.1 °F 90% 29.80 in 10.0 mi South 11.5 mph - 0.00 in Rain Light Rain
11:53 AM 55.0 °F 52.0 °F 89% 29.81 in 10.0 mi South 10.4 mph - 0.00 in   Overcast
12:53 PM 55.0 °F 52.0 °F 89% 29.79 in 10.0 mi South 11.5 mph - N/A   Mostly Cloudy
1:01 PM 55.0 °F 52.0 °F 89% 29.79 in 10.0 mi South 11.5 mph - N/A   Mostly Cloudy
1:15 PM 55.0 °F 52.0 °F 89% 29.79 in 10.0 mi South 12.7 mph - N/A   Mostly Cloudy
1:24 PM 55.0 °F 52.0 °F 89% 29.79 in 10.0 mi South 13.8 mph - N/A   Mostly Cloudy
1:32 PM 55.0 °F 52.0 °F 89% 29.79 in 10.0 mi SSW 12.7 mph - N/A   Scattered Clouds
1:49 PM 55.4 °F 51.8 °F 88% 29.79 in 10.0 mi SSW 12.7 mph 21.9 mph N/A   Mostly Cloudy
1:53 PM 55.9 °F 51.1 °F 84% 29.78 in 10.0 mi South 11.5 mph - N/A   Mostly Cloudy
2:02 PM 55.9 °F 52.0 °F 87% 29.78 in 10.0 mi SSW 11.5 mph - N/A   Scattered Clouds
2:53 PM 60.1 °F 53.1 °F 78% 29.76 in 10.0 mi South 13.8 mph - N/A   Mostly Cloudy
3:32 PM 61.0 °F 52.0 °F 72% 29.75 in 10.0 mi SSW 12.7 mph 20.7 mph N/A   Scattered Clouds
3:53 PM 62.1 °F 52.0 °F 70% 29.75 in 10.0 mi SSW 12.7 mph 19.6 mph N/A   Partly Cloudy
4:53 PM 59.0 °F 51.1 °F 75% 29.76 in 10.0 mi SSW 5.8 mph - N/A   Mostly Cloudy
5:53 PM 61.0 °F 51.1 °F 70% 29.78 in 10.0 mi SSW 3.5 mph - N/A   Mostly Cloudy
6:53 PM 59.0 °F 44.1 °F 58% 29.81 in 10.0 mi SW 6.9 mph - N/A   Partly Cloudy
7:53 PM 57.0 °F 43.0 °F 59% 29.84 in 10.0 mi WSW 5.8 mph - N/A   Mostly Cloudy
8:53 PM 55.9 °F 41.0 °F 57% 29.86 in 10.0 mi West 8.1 mph - N/A   Mostly Cloudy
9:53 PM 54.0 °F 39.9 °F 59% 29.89 in 10.0 mi WSW 8.1 mph - N/A   Mostly Cloudy
10:53 PM 53.1 °F 39.9 °F 61% 29.91 in 10.0 mi WSW 6.9 mph - N/A   Clear
11:53 PM 51.1 °F 39.9 °F 66% 29.91 in 10.0 mi WSW 6.9 mph - N/A   Scattered Clouds